This demonstration page uses our WeatherBlox Daily Observations layout. Learn more.

Left ArrowRight Arrow

36.17497, -115.13722

Hourly Observations for March 6, 2015

Temp ( °F °C ) Dew Point ( °F °C ) Humidity (%) Winds ( mph kmh ) Pressure ( in mb ) Visibility ( mi km ) Precip ( " mm )
12:53 am 00:53 Clear 46 7.8 30 -1.1 54 54 NNW 5 7 30.35 1028 10 16 N/A
1:53 am 01:53 Clear 46 7.8 28 -2.2 50 50 W 3 6 30.35 1028 10 16 N/A
2:53 am 02:53 Clear 45 7.2 27 -2.8 49 49 W 6 9 30.33 1027 10 16 N/A
3:53 am 03:53 Clear 48 8.9 24 -4.4 39 39 WNW 3 6 30.32 1027 10 16 N/A
4:53 am 04:53 Clear 45 7.2 26 -3.3 48 48 N N/A 30.33 1027 10 16 N/A
5:53 am 05:53 Clear 44 6.7 26 -3.3 49 49 WNW 5 7 30.35 1028 10 16 N/A
6:53 am 06:53 Sunny 47 8.3 25 -3.9 42 42 NNW 3 6 30.37 1028 10 16 N/A
7:53 am 07:53 Sunny 52 11.1 25 -3.9 35 35 NE 5 7 30.38 1029 10 16 N/A
8:53 am 08:53 Sunny 56 13.3 23 -5 28 28 NW 6 9 30.39 1029 10 16 N/A
9:53 am 09:53 Sunny 60 15.6 21 -6.1 22 22 NNW 5 7 30.37 1029 10 16 N/A
10:53 am 10:53 Sunny 62 16.7 18 -7.8 18 18 N N/A 30.35 1028 10 16 N/A
11:53 am 11:53 Sunny 64 17.8 19 -7.2 18 18 S 3 6 30.32 1027 10 16 N/A
12:53 pm 12:53 Sunny 68 20 17 -8.3 14 14 VRB 3 6 30.28 1026 10 16 N/A
1:53 pm 13:53 Sunny 69 20.6 15 -9.4 12 12 VRB 5 7 30.24 1024 10 16 N/A
2:53 pm 14:53 Sunny 71 21.7 13 -10.6 10 10 VRB 6 9 30.22 1023 10 16 N/A
3:53 pm 15:53 Sunny 72 22.2 6 -14.4 7 7 E 12 19 30.20 1023 10 16 N/A
4:53 pm 16:53 Sunny 71 21.7 6 -14.4 8 8 ESE 6 9 30.19 1022 10 16 N/A
5:53 pm 17:53 Clear 68 20 11 -11.7 11 11 ENE 6 9 30.19 1022 10 16 N/A
6:53 pm 18:53 Clear 64 17.8 15 -9.4 15 15 WNW 6 9 30.20 1023 10 16 N/A
7:53 pm 19:53 Clear 61 16.1 19 -7.2 20 20 NW 5 7 30.21 1023 10 16 N/A
8:53 pm 20:53 Clear 58 14.4 22 -5.6 25 25 WNW 5 7 30.22 1023 10 16 N/A
9:53 pm 21:53 Clear 56 13.3 24 -4.4 29 29 W 5 7 30.22 1023 10 16 N/A
10:53 pm 22:53 Clear 55 12.8 24 -4.4 30 30 SW 5 7 30.22 1023 10 16 N/A
11:53 pm 23:53 Clear 52 11.1 25 -3.9 35 35 NNW 6 9 30.21 1023 10 16 N/A

Powered by AerisWeather